Belize, Belize

8:33 PM CST on August 25, 2016 (GMT -0600)
Philip S W Goldson International

Weather History for MZBZ - April, 2013

Change the Weather History Date:

Friday, April 5, 2013

  Actual Average Record
Temperature  
Mean Temperature 78 °F -  
Max Temperature 82 °F 88 °F 91 °F (1998)
Min Temperature 73 °F 74 °F 68 °F (2006)
Cooling Degree Days 12    
Growing Degree Days 28 (Base 50)    
Moisture  
Dew Point 73 °F    
Average Humidity 85    
Maximum Humidity 94    
Minimum Humidity 75    
Precipitation  
Precipitation 0.03 in 0.08 in - ()
Sea Level Pressure  
Sea Level Pressure 29.99 in    
Wind  
Wind Speed 7 mph ()    
Max Wind Speed 13 mph    
Max Gust Speed -    
Visibility 8.0 miles    
Events Rain , Thunderstorm    
Averages and records for this station are not official NWS values.
T = Trace of Precipitation, MM = Missing Value Source: Averaged Metar Reports

Daily Weather History Graph

Daily Weather History Graph

Search for Another Location

Airport or City:

Trip Planner

Search our weather history database for the weather conditions in past years. The results will help you decide how hot, cold, wet, or windy it might be!

Date:

Astronomy

Apr. 05, 2013 Rise Set
Actual Time 5:44 AM CST 6:07 PM CST
Civil Twilight 5:22 AM CST 6:29 PM CST
Nautical Twilight 4:57 AM CST 6:54 PM CST
Astronomical Twilight 4:31 AM CST 7:20 PM CST
Moon 2:11 AM CST (4/5) 2:07 PM CST (4/5)
Length of Visible Light 13h 06m
Length of Day
12h 22m
Waning Crescent, 23% of the Moon is Illuminated
Apr 5
Waning Crescent
Apr 10
New
Apr 18
First Quarter
Apr 25
Full
May 2
Last Quarter

Hourly Weather History & Observations

Time (CST) Temp. Heat Index Dew Point Humidity Pressure Visibility Wind Dir Wind Speed Gust Speed Precip Events Conditions
12:00 AM 77 °F - 75 °F 92% 29.98 in 12 mi West 9.2 mph - - Thunderstorm Light Thunderstorm
3:00 AM 74 °F - 72 °F 91% 29.94 in 12 mi WSW 4.6 mph - -   Partly Cloudy
5:00 AM 73.4 °F - 71.6 °F 94% 29.90 in 6.2 mi West 10.4 mph - N/A   Mostly Cloudy
6:00 AM 73 °F - 71 °F 91% 29.91 in 12 mi West 9.2 mph - -   Scattered Clouds
6:00 AM 73.4 °F - 71.6 °F 94% 29.94 in - West 9.2 mph - N/A   Clear
7:00 AM 73.4 °F - 71.6 °F 94% 29.99 in - NW 6.9 mph - N/A   Clear
8:00 AM 77.0 °F - 71.6 °F 83% 30.03 in 6.2 mi NW 8.1 mph - N/A   Mostly Cloudy
9:00 AM 78 °F - 73 °F 80% 30.04 in 6 mi West 3.5 mph - -   Mostly Cloudy
9:00 AM 78.8 °F - 73.4 °F 83% 30.04 in 5.6 mi West 3.5 mph - N/A   Mostly Cloudy
10:00 AM 78.8 °F - 73.4 °F 83% 30.04 in 5.0 mi NNW 9.2 mph - N/A   Mostly Cloudy
11:00 AM 78.8 °F - 73.4 °F 83% 30.03 in 4.3 mi North 12.7 mph - N/A Rain Light Rain Showers
12:00 PM 78 °F - 74 °F 82% 30.03 in 11 mi North 10.4 mph - - Rain Light Rain Showers
12:00 PM 78.8 °F - 73.4 °F 83% 30.02 in 6.2 mi North 10.4 mph - N/A   Mostly Cloudy
1:00 PM 78.8 °F - 73.4 °F 83% 30.01 in 6.2 mi North 10.4 mph - N/A   Mostly Cloudy
2:00 PM 78.8 °F - 73.4 °F 83% 29.99 in 6.2 mi NNE 10.4 mph - N/A   Mostly Cloudy
3:00 PM 79 °F - 72 °F 75% 29.97 in 12 mi NNE 9.2 mph - -   Mostly Cloudy
3:00 PM 78.8 °F - 71.6 °F 78% 29.97 in 6.2 mi NNE 9.2 mph - N/A   Mostly Cloudy
4:00 PM 78.8 °F - 73.4 °F 83% 29.95 in 6.2 mi ENE 9.2 mph - N/A   Scattered Clouds
5:00 PM 80.6 °F 85.4 °F 73.4 °F 79% 29.96 in 6.2 mi ENE 8.1 mph - N/A   Scattered Clouds
6:00 PM 78 °F - 74 °F 84% 29.97 in 12 mi Calm Calm - -   Scattered Clouds
6:00 PM 78.8 °F - 73.4 °F 83% 29.97 in 6.2 mi Calm Calm - N/A   Partly Cloudy
9:00 PM 74 °F - 72 °F 94% 30.05 in 12 mi Calm Calm - -   Mostly Cloudy